Date String (YYYY-MM-DD hh:mm:ss) UTC,Instrument flags,absolute air pressure of the measurement (hPa),sample flow rate (lpm),inlet stack bypass flow (lpm),air temperature of the measurement (°C),ambient temperature measured by the external sensor (°C),aerosol sample conditioner tube jacket temperature (°C),OPC LED temperature (°C),internal box temperature (°C),relative humidity of the measurement (%),span deviation,mass concentration of particles derived from Lorenz-Mie calculation of OPC scattering (μg/m³),mass concentration of particles derived from Lorenz-Mie calculation of OPC scattering (μg/m³),mass concentration of particles derived from Lorenz-Mie calculation of OPC scattering (μg/m³)
DateTimeUTC,F1_M11,P_M11,Q1_M11,Q2_M11,T1_M11,T2_M11,T3_M11,T4_M11,T5_M11,U1_M11,ZSPAN_M11,X0_M11,X2_M11,X1_M11
2023-09-14 02:00:00,SystemResetWarning,0828.9,5.01,000.00,027.8,024.4,000.0,036.2,029.0,18.5,0000.0,0008.66,0004.19,0003.81
2023-09-14 02:01:00,SystemResetWarning,0829.0,5.01,000.00,027.7,024.7,000.0,036.2,029.1,18.7,0000.0,0008.73,0004.21,0003.82
2023-09-14 02:02:00,SystemResetWarning,0829.1,4.98,000.00,027.7,025.1,000.0,036.2,029.1,18.6,0000.0,0008.77,0004.24,0003.83
2023-09-14 02:03:00,SystemResetWarning,0829.1,5.00,000.00,027.7,025.4,000.0,036.2,029.2,18.5,0000.0,0008.10,0004.23,0003.84
2023-09-14 02:04:00,SystemResetWarning,0829.1,5.00,000.00,027.7,025.7,000.0,036.2,029.3,18.6,0000.0,0008.13,0004.23,0003.84
2023-09-14 02:05:00,SystemResetWarning,0829.1,5.01,000.00,027.8,026.0,000.0,036.2,029.4,18.8,0000.0,0007.98,0004.26,0003.85
2023-09-14 02:06:00,SystemResetWarning,0829.1,5.00,000.00,027.8,026.2,000.0,036.2,029.4,18.7,0000.0,0008.18,0004.29,0003.87
2023-09-14 02:07:00,SystemResetWarning,0829.1,4.99,000.00,027.8,026.4,000.0,036.2,029.5,18.9,0000.0,0008.76,0004.30,0003.88
2023-09-14 02:08:00,SystemResetWarning,0829.1,4.99,000.00,027.9,026.5,000.0,036.2,029.5,18.7,0000.0,0008.72,0004.28,0003.90
2023-09-14 02:09:00,SystemResetWarning,0829.1,5.00,000.00,027.9,026.7,000.0,036.2,029.6,18.6,0000.0,0008.81,0004.31,0003.91
2023-09-14 02:10:00,SystemResetWarning,0829.2,5.00,000.00,027.9,026.8,000.0,036.2,029.6,18.7,0000.0,0009.03,0004.34,0003.91
2023-09-14 02:11:00,SystemResetWarning,0829.2,5.01,000.00,028.0,026.8,000.0,036.3,029.6,18.7,0000.0,0008.65,0004.33,0003.91
2023-09-14 02:12:00,SystemResetWarning,0829.2,5.00,000.00,028.0,026.9,000.0,036.3,029.7,18.6,0000.0,0008.63,0004.32,0003.90
2023-09-14 02:13:00,SystemResetWarning,0829.2,4.99,000.00,028.0,027.0,000.0,036.3,029.8,18.7,0000.0,0008.56,0004.30,0003.90
2023-09-14 02:14:00,SystemResetWarning,0829.2,4.99,000.00,028.1,027.1,000.0,036.3,029.8,18.7,0000.0,0008.54,0004.30,0003.91
2023-09-14 02:15:00,SystemResetWarning,0829.2,5.00,000.00,028.1,027.1,000.0,036.3,029.8,18.6,0000.0,0008.43,0004.28,0003.90
2023-09-14 02:16:00,SystemResetWarning,0829.2,5.00,000.00,028.1,025.8,000.0,036.3,029.5,18.6,0000.0,0008.53,0004.31,0003.92
2023-09-14 02:17:00,SystemResetWarning,0829.2,5.01,000.00,028.0,024.4,000.0,036.2,029.2,18.4,0000.0,0008.49,0004.34,0003.93
2023-09-14 02:18:00,SystemResetWarning,0829.2,5.01,000.00,027.9,024.2,000.0,036.2,029.1,18.5,0000.0,0008.05,0004.35,0003.92
2023-09-14 02:19:00,SystemResetWarning,0829.2,4.99,000.00,027.8,024.5,000.0,036.2,029.0,18.8,0000.0,0007.95,0004.36,0003.92
2023-09-14 02:20:00,SystemResetWarning,0829.2,4.99,000.00,027.7,024.8,000.0,036.2,029.1,18.5,0000.0,0007.90,0004.34,0003.91
2023-09-14 02:21:00,SystemResetWarning,0829.2,4.99,000.00,027.7,025.1,000.0,036.2,029.1,18.8,0000.0,0007.64,0004.32,0003.91
2023-09-14 02:22:00,SystemResetWarning,0829.3,5.00,000.00,027.7,025.5,000.0,036.2,029.2,19.3,0000.0,0008.86,0004.35,0003.92
2023-09-14 02:23:00,SystemResetWarning,0829.3,5.01,000.00,027.7,025.7,000.0,036.2,029.3,19.0,0000.0,0008.85,0004.36,0003.93
2023-09-14 02:24:00,SystemResetWarning,0829.4,5.00,000.00,027.8,026.0,000.0,036.2,029.3,18.9,0000.0,0009.03,0004.38,0003.93
2023-09-14 02:25:00,SystemResetWarning,0829.4,4.99,000.00,027.8,026.2,000.0,036.2,029.4,19.1,0000.0,0009.77,0004.40,0003.94
2023-09-14 02:26:00,SystemResetWarning,0829.4,5.00,000.00,027.8,026.3,000.0,036.2,029.4,19.2,0000.0,0010.13,0004.43,0003.96
2023-09-14 02:27:00,SystemResetWarning,0829.4,5.00,000.00,027.8,026.5,000.0,036.2,029.5,19.9,0000.0,0010.13,0004.42,0003.96
2023-09-14 02:28:00,SystemResetWarning,0829.3,5.01,000.00,027.9,026.6,000.0,036.2,029.5,20.0,0000.0,0009.99,0004.41,0003.96
2023-09-14 02:29:00,SystemResetWarning,0829.3,5.01,000.00,027.9,026.7,000.0,036.2,029.5,19.3,0000.0,0009.93,0004.43,0003.97
2023-09-14 02:30:00,SystemResetWarning,0829.3,5.00,000.00,027.9,026.8,000.0,036.2,029.6,19.4,0000.0,0009.95,0004.46,0003.98
2023-09-14 02:31:00,SystemResetWarning,0829.3,5.00,000.00,028.0,026.8,000.0,036.3,029.7,19.7,0000.0,0009.98,0004.48,0003.99
2023-09-14 02:32:00,SystemResetWarning,0829.4,5.00,000.00,028.0,026.9,000.0,036.3,029.7,18.8,0000.0,0009.98,0004.50,0003.99
2023-09-14 02:33:00,SystemResetWarning,0829.3,5.00,000.00,028.0,027.0,000.0,036.3,029.7,18.6,0000.0,0008.90,0004.50,0004.00
2023-09-14 02:34:00,SystemResetWarning,0829.3,5.00,000.00,028.1,027.0,000.0,036.3,029.8,18.7,0000.0,0009.05,0004.52,0004.00
2023-09-14 02:35:00,SystemResetWarning,0829.3,5.00,000.00,028.1,027.1,000.0,036.3,029.8,18.6,0000.0,0009.64,0004.51,0004.00
2023-09-14 02:36:00,SystemResetWarning,0829.3,5.00,000.00,028.1,027.1,000.0,036.4,029.8,18.5,0000.0,0009.17,0004.48,0003.99
2023-09-14 02:37:00,SystemResetWarning,0829.3,4.99,000.00,028.2,026.4,000.0,036.4,029.6,18.4,0000.0,0008.84,0004.49,0003.99
2023-09-14 02:38:00,SystemResetWarning,0829.4,5.01,000.00,028.0,024.7,000.0,036.3,029.1,18.7,0000.0,0008.74,0004.53,0003.99
2023-09-14 02:39:00,SystemResetWarning,0829.4,5.01,000.00,027.9,024.2,000.0,036.2,029.1,18.6,0000.0,0008.94,0004.55,0003.99
2023-09-14 02:40:00,SystemResetWarning,0829.3,5.00,000.00,027.8,024.3,000.0,036.2,029.0,18.7,0000.0,0009.64,0004.54,0003.99
2023-09-14 02:41:00,SystemResetWarning,0829.3,5.00,000.00,027.8,024.6,000.0,036.2,029.1,19.0,0000.0,0010.55,0004.57,0003.99
2023-09-14 02:42:00,SystemResetWarning,0829.3,5.00,000.00,027.7,025.0,000.0,036.2,029.1,19.2,0000.0,0011.07,0004.60,0004.01
2023-09-14 02:43:00,SystemResetWarning,0829.3,4.99,000.00,027.7,025.3,000.0,036.2,029.2,18.8,0000.0,0011.52,0004.64,0004.03
2023-09-14 02:44:00,SystemResetWarning,0829.4,5.00,000.00,027.7,025.6,000.0,036.2,029.3,18.6,0000.0,0012.09,0004.68,0004.03
2023-09-14 02:45:00,SystemResetWarning,0829.4,5.00,000.00,027.8,025.8,000.0,036.2,029.3,18.8,0000.0,0011.83,0004.68,0004.04
2023-09-14 02:46:00,SystemResetWarning,0829.4,5.00,000.00,027.8,026.0,000.0,036.2,029.3,19.0,0000.0,0011.13,0004.69,0004.05
2023-09-14 02:47:00,SystemResetWarning,0829.5,5.01,000.00,027.8,026.2,000.0,036.2,029.4,19.1,0000.0,0011.00,0004.74,0004.06
2023-09-14 02:48:00,SystemResetWarning,0829.5,5.00,000.00,027.8,026.4,000.0,036.2,029.5,19.1,0000.0,0011.02,0004.73,0004.07
2023-09-14 02:49:00,SystemResetWarning,0829.6,5.00,000.00,027.9,026.5,000.0,036.2,029.5,18.5,0000.0,0010.97,0004.69,0004.07
2023-09-14 02:50:00,SystemResetWarning,0829.5,5.00,000.00,027.9,026.6,000.0,036.2,029.6,18.5,0000.0,0011.28,0004.69,0004.07
2023-09-14 02:51:00,SystemResetWarning,0829.5,5.00,000.00,027.9,026.7,000.0,036.3,029.6,18.3,0000.0,0010.60,0004.69,0004.07
2023-09-14 02:52:00,SystemResetWarning,0829.5,5.00,000.00,028.0,026.8,000.0,036.3,029.6,18.4,0000.0,0010.07,0004.66,0004.06
2023-09-14 02:53:00,SystemResetWarning,0829.6,5.00,000.00,028.0,026.8,000.0,036.3,029.7,18.6,0000.0,0009.71,0004.64,0004.05
2023-09-14 02:54:00,SystemResetWarning,0829.6,5.00,000.00,028.0,026.9,000.0,036.3,029.7,18.3,0000.0,0009.38,0004.64,0004.05
2023-09-14 02:55:00,SystemResetWarning,0829.6,4.99,000.00,028.1,026.9,000.0,036.3,029.7,18.4,0000.0,0009.27,0004.61,0004.05
2023-09-14 02:56:00,SystemResetWarning,0829.6,5.00,000.00,028.1,027.0,000.0,036.3,029.8,18.6,0000.0,0009.80,0004.63,0004.05
2023-09-14 02:57:00,SystemResetWarning,0829.7,5.00,000.00,028.1,027.0,000.0,036.4,029.8,18.7,0000.0,0010.27,0004.66,0004.05
2023-09-14 02:58:00,SystemResetWarning,0829.7,5.00,000.00,028.2,027.1,000.0,036.4,029.8,18.3,0000.0,0010.62,0004.67,0004.05
2023-09-14 02:59:00,SystemResetWarning,0829.7,5.00,000.00,028.2,027.1,000.0,036.4,029.9,18.1,0000.0,0011.16,0004.67,0004.04
